Weather in Vetly

Ukraine / Volyn Oblast     51°53′00″N   25°07′12″E
temp.,
°C
wind,
m/s
gust,
m/s
humid.,
%
clouds,
%
prec.,
mm/h
press.,
hPa
HPBL,
m
18 may, tue
tue1800:00+13nne2392100 0.0 100247
03:00+12n2394100 0.3 100268
06:00+13n2399100 0.9 1000105
09:00+14nne2397100 3.4 1001269
12:00+14nne3698100 4.8 1001386
15:00+14n3694100 9.3 1001352
18:00+14nnw5893100 2.4 1001371
21:00+13nnw51195100 3.3 1002419
19 may, wed
wed1900:00+11nnw41191100 0.0 1003442
03:00+9nw31095100 0.0 1004277
06:00+9nw51290100 0.0 1004368
09:00+12nw6108796 0.0 1006769
12:00+15nw6872100 0.1 10061241
15:00+16nw7964100 0.5 10071594
18:00+14wnw697999 0.4 1008764
21:00+12wnw388696 0.6 1009252
20 may, thu
thu2000:00+9nw379444 0.0 1010150
03:00+7nw399752 0.0 1010204
06:00+6nw499819 0.0 1011218
09:00+11nnw588277 0.0 1011509
12:00+14nnw677198 0.0 1011811
15:00+16nnw566095 0.4 10111465
18:00+14nw477799 1.4 1012644
21:00+11nw41085100 1.4 1013229
21 may, fri
fri2100:00+10nnw41186100 0.0 1015298
03:00+7nnw389392 0.0 1016178
06:00+6nnw389240 0.0 1017153
09:00+11nnw46675 0.0 1018457
12:00+15nw45576 0.0 10181364
15:00+16nw34519 0.0 10171813
18:00+16nw2250100 0.0 10161557
21:00+12ese116563 0.0 101711
22 may, sat
sat2200:00+12se366376 0.0 1016126
03:00+8sse3678100 0.0 101692
06:00+8sse3982100 0.0 1015176
09:00+13sse51171100 0.0 1014440
12:00+18s685384 0.0 10131127
15:00+20s7948100 0.0 10121930
18:00+18sse61061100 0.0 1010840
21:00+16sse61468100 0.0 1009511